Location: Mascot Post Office (historical)
(40.2645°N, 99.5462°W)
Time: 16:33:01
(UTC+00:00)

GEOS 3 Rocket - Pass Details

Date: 14 July 2020
Orbit: 771 x 848 km, 115.0° (Epoch: 04 August)

Event Time Altitude Azimuth Distance (km) Brightness Sun altitude
Rises 03:48:14 0° 42° (NE) 3,414 6.9 -15.8°
Reaches altitude 10° 03:50:43 10° 50° (NE) 2,476 6.1 -16.1°
Maximum altitude 03:55:46 40° 119° (ESE) 1,231 4.1 -16.8°
Enters shadow 03:58:53 21° 176° (S) 1,805 5.0 -17.1°
